Wind_Speed
16 16 16 16 16 16 16 16 16 15 15 15 15 15 15 14 14 14 14 13 13 12 12 11 11 10 10 9 9 8 8 7 7 6 6 5 4 3 3 2 2 1 1
18 18 18 18 18 18 18 18 17 17 17 16 17 17 17 17 16 16 16 15 15 14 13 13 13 12 11 11 10 9 9 8 8 7 7 6 5 4 4 3 2 2 2
20 20 20 20 20 20 19 19 19 19 19 19 19 18 18 19 18 18 18 17 17 16 15 15 14 13 13 12 11 11 10 10 9 9 8 7 7 6 5 5 4 4 3
21 21 22 22 22 21 21 21 22 21 21 21 21 21 20 21 21 20 20 19 19 18 17 17 16 15 14 14 13 12 12 11 11 10 10 9 9 8 7 7 6 5 5
23 23 23 23 23 23 23 23 23 24 23 23 23 23 23 23 22 22 22 21 21 20 20 19 18 17 17 16 15 14 13 13 12 12 11 11 10 9 9 8 7 7 6
24 24 24 25 25 25 25 25 25 25 25 25 25 25 25 25 24 24 23 23 23 23 22 21 20 19 19 18 17 16 16 15 14 13 13 12 12 11 11 10 9 8 8
24 24 24 25 25 26 26 26 26 26 26 26 26 26 27 27 26 26 26 25 24 24 24 23 22 21 21 20 19 19 18 17 16 16 15 14 14 13 12 12 11 10 10
25 24 25 25 25 25 26 26 26 26 27 27 27 27 26 27 27 27 26 26 25 25 25 25 24 24 23 22 21 21 20 19 18 18 17 16 15 15 14 13 13 12 12
26 26 25 25 25 25 25 26 26 27 27 27 27 27 27 27 28 29 29 28 27 26 26 25 25 25 24 24 23 22 21 21 21 20 19 18 18 17 16 15 15 14 14
25 26 26 26 25 25 25 26 26 26 27 28 28 28 28 28 29 30 30 30 30 29 28 27 27 27 26 26 25 25 24 23 22 22 21 20 20 19 18 18 17 17 16
25 26 26 26 26 26 26 26 27 27 27 28 29 30 30 30 29 30 31 31 32 31 30 30 28 29 28 28 27 27 26 25 24 23 23 22 21 21 20 20 19 19 18
24 25 26 26 26 27 27 27 27 28 29 29 30 31 31 31 31 31 31 32 33 32 32 32 31 31 30 29 28 28 28 27 27 26 25 24 24 23 23 22 21 21 21
25 25 26 26 27 27 28 28 28 28 29 31 32 32 33 33 33 33 32 33 33 34 34 33 32 32 32 31 30 29 29 28 28 28 27 27 26 26 25 25 24 24 24
25 26 27 27 28 27 28 28 29 30 30 30 32 33 34 34 34 35 35 34 34 34 34 35 35 34 34 33 32 31 30 29 29 29 29 28 28 28 28 27 26 26 26
26 26 27 28 28 29 29 29 30 30 30 30 32 34 35 36 35 36 37 36 36 35 35 35 36 35 35 34 33 33 33 32 30 30 30 30 29 29 29 29 28 28 27
26 26 27 28 29 29 29 31 32 32 32 32 32 34 35 36 37 36 36 36 36 36 36 36 37 36 36 36 35 35 34 34 33 32 32 31 30 30 30 30 30 30 30
25 26 27 27 29 29 29 30 31 31 32 33 32 33 34 35 36 37 36 37 37 37 37 37 37 37 36 37 36 35 35 35 35 34 34 33 33 32 32 32 31 31 31
25 26 26 26 27 28 28 28 29 30 30 32 33 33 34 34 35 36 37 37 38 38 38 38 37 38 37 37 37 37 36 36 36 36 35 35 35 34 34 33 33 33 32
25 25 25 25 25 26 26 27 27 29 30 31 32 33 34 34 34 35 36 36 37 38 37 38 38 37 38 37 38 38 38 37 37 37 37 37 37 36 35 35 34 34 34
25 24 24 24 24 25 25 26 26 27 29 30 31 32 34 34 34 35 36 35 36 37 36 37 38 38 39 39 39 39 39 39 38 38 38 37 37 36 37 37 36 36 36
24 24 24 23 23 24 25 25 26 27 28 29 30 31 33 34 35 34 35 35 36 35 35 36 37 37 38 39 39 39 40 40 40 39 38 37 37 37 37 37 37 38 38
24 24 24 23 23 23 24 25 26 26 26 27 29 30 31 33 33 33 33 34 36 35 35 36 36 38 38 39 40 40 41 40 40 39 39 38 37 36 36 37 37 38 39
24 24 24 24 24 24 24 25 25 26 26 27 27 28 30 31 31 32 32 33 35 35 36 37 37 37 38 39 39 40 40 40 40 40 39 38 38 39 39 38 39 39 39
25 25 25 25 25 25 25 25 25 25 25 26 27 27 28 28 29 31 32 32 34 35 35 36 36 38 39 40 40 40 41 40 40 39 39 39 39 39 40 40 40 40 40
25 25 25 25 25 25 25 25 25 25 25 26 26 26 26 27 27 29 31 32 33 35 36 36 36 38 39 40 40 40 41 41 41 40 40 40 41 41 41 41 41 42 42
25 25 25 25 25 25 25 26 25 25 25 26 26 25 25 26 27 28 31 32 33 35 36 37 37 38 38 39 39 40 41 41 41 42 41 41 41 41 41 42 42 42 43
Wind_Direction
261 260 258 259 258 256 254 253 250 249 248 246 243 240 237 234 231 228 228 227 227 227 227 224 222 219 218 216 215 214 212 211 211 211 210 209 209 207 205 209 209 205 200
262 260 259 258 258 256 254 254 252 250 250 247 244 241 237 235 233 232 231 231 231 230 230 228 226 223 222 219 218 218 218 217 217 217 217 216 217 221 223 226 227 231 234
262 260 259 258 258 257 255 255 253 253 251 247 244 242 239 237 236 234 233 233 233 232 232 232 231 229 227 224 223 223 223 222 222 221 220 221 224 228 232 237 241 241 243
263 260 259 259 259 258 257 257 255 255 253 248 244 242 241 239 238 237 236 236 235 234 234 234 233 231 230 229 228 227 226 227 227 226 226 227 229 233 236 237 241 244 245
264 261 259 259 259 259 258 258 257 256 254 250 246 244 242 241 240 240 238 238 238 236 235 235 236 234 232 231 232 231 230 230 230 230 232 232 233 235 238 240 241 243 246
264 261 259 258 259 259 258 258 257 257 254 251 248 246 244 242 241 241 240 240 240 238 236 236 237 237 235 234 234 235 234 233 234 235 236 236 236 238 240 242 243 245 247
264 261 259 258 259 259 259 258 257 255 253 252 249 248 246 244 242 242 241 241 239 239 238 237 237 237 237 237 237 237 237 236 237 239 240 239 239 240 241 244 246 247 249
264 262 261 259 259 259 259 259 258 256 254 253 251 250 248 246 244 243 242 241 240 239 240 238 238 239 239 239 240 240 240 240 240 240 242 242 241 242 243 245 247 249 250
264 262 261 259 258 258 259 259 259 257 255 254 252 251 250 249 247 246 245 243 242 241 241 241 239 240 240 241 241 242 243 242 241 241 242 243 243 244 245 246 248 249 250
267 264 261 258 258 259 259 259 258 258 257 255 253 252 251 250 250 248 247 246 244 243 241 241 242 241 241 242 243 244 245 245 244 244 244 244 245 246 247 248 250 251 252
269 266 261 259 259 259 258 257 257 257 256 256 255 252 252 252 251 250 248 247 246 245 243 242 243 242 242 243 244 244 246 246 245 245 246 246 246 247 249 250 251 252 253
270 269 265 261 260 260 260 259 258 257 256 256 255 254 253 252 251 250 249 247 245 245 244 244 244 243 242 243 244 245 246 247 246 246 247 248 248 248 250 252 253 253 254
271 270 269 263 261 260 260 259 258 258 257 256 256 255 254 253 253 250 250 248 246 245 245 244 245 244 243 243 244 245 246 247 247 247 247 248 249 250 251 253 255 256 256
273 272 271 266 262 262 261 258 258 258 259 258 256 255 256 256 254 251 249 249 247 245 245 245 244 245 244 245 245 246 246 247 247 248 248 248 249 250 251 254 255 256 256
275 275 274 270 264 263 263 260 260 259 259 260 259 256 256 256 256 253 250 249 248 246 245 244 245 245 245 245 246 246 246 247 247 249 250 249 250 251 252 253 256 256 256
276 275 275 272 267 266 264 262 261 262 261 262 262 260 257 256 255 252 251 249 248 246 245 244 244 246 246 245 245 246 247 248 248 249 251 251 252 252 253 254 256 258 258
278 277 276 274 270 268 267 266 265 265 265 265 265 262 259 257 255 251 250 248 247 246 246 245 245 245 245 245 246 247 249 249 250 251 251 252 252 253 254 255 255 257 259
280 280 278 275 272 269 269 268 268 269 268 267 265 263 259 258 254 252 251 248 246 245 246 245 244 243 243 245 246 247 249 250 251 251 253 253 254 255 254 254 256 257 258
281 281 280 276 273 270 270 271 271 271 271 269 266 263 261 259 255 253 253 250 247 245 244 244 244 244 243 244 246 247 248 249 251 252 253 254 254 254 254 254 255 257 258
281 281 279 277 274 272 272 272 273 274 273 270 268 265 262 260 257 255 255 253 250 246 243 244 245 245 244 245 247 248 248 249 251 252 252 252 252 253 254 255 255 256 258
283 281 278 277 273 272 273 273 275 276 276 272 270 268 265 261 258 256 257 253 250 248 246 245 245 246 245 247 249 248 249 250 251 250 251 252 252 254 255 256 256 256 256
283 281 277 278 275 273 274 274 276 277 277 275 273 272 267 263 261 258 257 255 252 250 249 248 246 248 249 250 250 249 249 251 252 252 252 252 253 254 255 257 257 258 257
282 280 278 278 277 274 276 277 277 279 279 277 275 272 268 264 262 259 257 255 254 252 252 251 249 250 250 251 250 251 250 251 252 252 252 253 254 255 256 258 259 260 259
282 281 278 277 277 275 277 279 280 278 279 279 276 274 269 266 262 259 258 258 256 255 254 253 252 254 252 252 251 251 251 250 251 252 254 255 257 258 259 260 260 261 261
281 280 279 277 277 275 276 278 280 280 280 280 277 274 271 269 266 263 261 260 258 257 255 253 253 253 253 252 252 252 250 249 251 252 255 256 257 259 261 261 262 263 263
280 280 279 277 277 276 276 278 278 280 280 280 279 275 273 271 269 267 265 262 261 259 257 254 254 253 253 253 253 253 252 251 253 255 255 256 257 259 262 262 263 263 263
Height
5833 5833 5833 5834 5834 5835 5836 5837 5838 5839 5840 5841 5841 5843 5844 5845 5845 5846 5847 5848 5849 5850 5851 5852 5853 5853 5854 5855 5856 5857 5858 5858 5859 5860 5861 5861 5862 5863 5863 5864 5864 5864 5865
5829 5829 5830 5831 5831 5832 5833 5834 5834 5836 5837 5838 5839 5840 5841 5842 5843 5844 5845 5846 5847 5848 5849 5850 5851 5852 5853 5854 5855 5856 5856 5857 5858 5859 5860 5861 5861 5862 5862 5863 5863 5864 5864
5825 5826 5826 5827 5828 5828 5829 5830 5831 5832 5833 5834 5836 5837 5838 5839 5841 5842 5843 5844 5845 5846 5847 5848 5849 5850 5851 5852 5853 5854 5855 5856 5857 5858 5859 5859 5860 5861 5862 5862 5863 5863 5864
5821 5822 5822 5823 5824 5824 5825 5826 5827 5828 5829 5830 5831 5833 5835 5836 5837 5839 5840 5841 5842 5844 5845 5846 5847 5848 5849 5850 5851 5852 5853 5854 5855 5856 5857 5858 5859 5860 5860 5861 5862 5862 5863
5817 5817 5818 5819 5819 5820 5821 5822 5823 5824 5825 5826 5827 5828 5830 5832 5834 5835 5837 5838 5839 5840 5842 5843 5844 5846 5847 5848 5849 5850 5851 5852 5853 5854 5855 5856 5857 5858 5859 5859 5860 5861 5861
5812 5813 5813 5814 5814 5815 5816 5817 5818 5819 5820 5821 5822 5824 5826 5828 5830 5831 5833 5834 5835 5837 5838 5840 5841 5842 5844 5845 5846 5848 5849 5850 5851 5852 5853 5854 5855 5856 5857 5858 5858 5859 5860
5807 5807 5808 5809 5809 5810 5811 5812 5813 5814 5815 5816 5817 5819 5821 5823 5825 5826 5828 5830 5831 5833 5834 5836 5838 5839 5840 5842 5843 5845 5846 5847 5848 5850 5851 5852 5853 5854 5855 5855 5856 5857 5858
5801 5802 5803 5803 5804 5805 5805 5806 5807 5808 5809 5810 5812 5814 5816 5817 5819 5821 5823 5825 5827 5828 5830 5832 5833 5835 5836 5838 5839 5841 5842 5844 5845 5847 5848 5849 5850 5851 5852 5853 5854 5855 5855
5796 5796 5797 5797 5798 5799 5800 5801 5801 5802 5803 5805 5806 5808 5810 5812 5814 5816 5818 5820 5821 5823 5825 5827 5829 5830 5832 5834 5835 5837 5838 5840 5841 5843 5845 5846 5847 5848 5849 5850 5851 5852 5853
5790 5790 5791 5791 5792 5793 5794 5794 5795 5796 5797 5799 5800 5802 5804 5805 5807 5809 5811 5813 5815 5817 5819 5821 5823 5825 5827 5829 5831 5832 5834 5836 5837 5839 5841 5842 5843 5844 5845 5847 5847 5848 5849
5784 5784 5784 5785 5786 5787 5787 5788 5789 5790 5791 5792 5794 5796 5797 5799 5801 5803 5805 5807 5808 5811 5813 5815 5817 5820 5821 5823 5825 5827 5829 5831 5833 5835 5836 5838 5839 5840 5841 5842 5844 5845 5846
5778 5778 5778 5779 5780 5780 5781 5782 5783 5784 5785 5786 5787 5789 5791 5792 5794 5796 5797 5799 5801 5804 5806 5809 5811 5813 5815 5818 5820 5822 5824 5826 5828 5830 5831 5833 5834 5836 5837 5838 5839 5840 5841
5772 5772 5772 5772 5773 5773 5774 5775 5776 5777 5778 5779 5780 5782 5783 5785 5787 5788 5790 5792 5794 5797 5799 5802 5804 5807 5809 5812 5814 5816 5818 5821 5823 5824 5826 5828 5829 5831 5832 5833 5834 5836 5837
5767 5766 5766 5765 5766 5766 5767 5768 5769 5770 5771 5772 5773 5774 5775 5777 5778 5780 5782 5784 5786 5789 5792 5794 5797 5800 5802 5805 5808 5810 5812 5815 5817 5819 5820 5822 5824 5825 5827 5828 5829 5830 5831
5761 5760 5759 5759 5759 5759 5760 5760 5761 5763 5763 5764 5765 5766 5767 5768 5770 5772 5773 5776 5778 5780 5783 5786 5789 5792 5795 5798 5801 5803 5806 5808 5810 5812 5814 5816 5818 5819 5821 5822 5823 5824 5825
5754 5753 5753 5752 5752 5752 5752 5752 5753 5754 5755 5756 5756 5757 5758 5758 5760 5762 5764 5766 5769 5772 5775 5778 5781 5785 5788 5791 5793 5796 5798 5801 5803 5806 5807 5809 5811 5812 5814 5815 5817 5818 5819
5747 5747 5746 5745 5744 5744 5744 5745 5745 5745 5746 5747 5747 5747 5748 5748 5750 5752 5755 5757 5760 5763 5766 5770 5773 5776 5780 5783 5786 5788 5791 5794 5796 5798 5800 5802 5803 5805 5807 5808 5810 5811 5812
5741 5740 5739 5738 5737 5737 5737 5737 5737 5737 5737 5737 5737 5737 5738 5739 5741 5743 5745 5748 5751 5754 5757 5761 5764 5768 5771 5775 5778 5781 5783 5785 5788 5790 5792 5794 5795 5797 5799 5801 5802 5804 5805
5734 5733 5732 5731 5731 5730 5730 5730 5730 5729 5729 5728 5728 5729 5729 5730 5732 5734 5737 5739 5742 5745 5748 5752 5755 5758 5762 5766 5769 5772 5775 5777 5780 5781 5783 5785 5787 5788 5790 5792 5794 5796 5797
5728 5727 5725 5725 5724 5724 5724 5724 5724 5723 5722 5721 5721 5721 5722 5723 5724 5726 5728 5731 5733 5737 5740 5743 5747 5750 5754 5757 5760 5763 5766 5768 5771 5773 5774 5776 5778 5779 5781 5783 5785 5787 5789
5721 5720 5719 5719 5718 5718 5718 5717 5717 5716 5715 5714 5714 5714 5714 5715 5716 5718 5720 5723 5725 5729 5732 5735 5738 5741 5744 5748 5751 5754 5757 5759 5761 5764 5765 5767 5769 5771 5773 5774 5776 5778 5780
5715 5714 5713 5713 5712 5712 5711 5711 5710 5709 5709 5708 5707 5707 5707 5707 5708 5710 5712 5715 5718 5721 5724 5727 5730 5733 5735 5739 5742 5745 5748 5751 5752 5754 5756 5758 5760 5762 5764 5765 5767 5768 5770
5709 5708 5707 5707 5706 5706 5705 5705 5704 5703 5702 5702 5701 5700 5700 5700 5701 5702 5705 5707 5710 5713 5715 5718 5721 5724 5727 5730 5732 5735 5738 5741 5743 5745 5747 5749 5751 5753 5755 5756 5758 5759 5761
5703 5702 5701 5700 5700 5699 5699 5698 5697 5697 5696 5696 5695 5694 5694 5694 5694 5696 5698 5700 5702 5705 5707 5710 5712 5715 5718 5721 5723 5725 5728 5731 5734 5737 5739 5740 5742 5744 5746 5747 5748 5749 5751
5696 5695 5695 5694 5693 5693 5692 5692 5691 5690 5690 5689 5689 5688 5688 5688 5688 5689 5691 5693 5695 5697 5699 5701 5704 5706 5709 5711 5714 5716 5718 5721 5724 5727 5730 5732 5733 5735 5736 5737 5738 5739 5740
5689 5689 5688 5688 5687 5686 5686 5685 5685 5684 5683 5683 5682 5682 5682 5682 5682 5683 5684 5685 5687 5688 5690 5692 5694 5697 5699 5702 5704 5707 5709 5712 5714 5717 5719 5721 5723 5725 5726 5727 5728 5729 5730